Погода в Ленино

Россия / Пензенская область     53°01′59″N   44°53′32″E
темп.,
°C
ветер,
м/с
пор.,
м/с
влажн.,
%
обл.,
%
осадки,
мм/ч
давл.,
гПа
погр.,
м
16 мая, пн
пн1600:00+6з379326 0.0 1004119
03:00+6зюз37945 0.0 1003125
06:00+7зюз489170 0.0 1003233
09:00+12з577476 0.5 1003672
12:00+14з5662100 2.2 10021400
15:00+14з7868100 4.6 10021235
18:00+11зсз7108435 2.3 1004814
21:00+7з5119027 2.5 1005423
17 мая, вт
вт1700:00+6з410955 0.0 1005279
03:00+4зюз410955 0.0 1005237
06:00+6зюз5109038 0.0 1004344
09:00+10зюз687269 0.2 10041118
12:00+12з785991 1.7 10031918
15:00+10з687038 2.5 10031306
18:00+9з5680100 0.5 1002872
21:00+6зюз3794100 1.6 1002769
18 мая, ср
ср1800:00+7зюз4797100 1.0 1001587
03:00+7з3796100 1.8 1001352
06:00+7зсз3796100 0.6 1002490
09:00+8зсз3587100 0.9 1003522
12:00+10ссз447199 0.3 1004962
15:00+10сз4674100 0.4 1006892
18:00+9с368599 0.1 1008502
21:00+8ссз3689100 0.1 1009418
19 мая, чт
чт1900:00+7сз2590100 0.0 1010317
03:00+4сз37957 0.0 1011150
06:00+5сз488469 0.0 1011306
09:00+7зсз5781100 0.2 1012867
12:00+9з677429 0.6 10111051
15:00+9з576995 0.8 10101145
18:00+6зюз5893100 2.2 10091136
21:00+5с7997100 2.9 1010809
20 мая, пт
пт2000:00+4ссз61193100 0.7 1012842
03:00+2сз5109848 0.7 1013325
06:00+4сз599129 0.0 1014402
09:00+8сз68685 0.0 10151183
12:00+10сз7852100 0.1 10142180
15:00+10сз695680 0.2 10141907
18:00+9сз5868100 0.3 1013982
21:00+5зсз3383100 0.3 101340